ASAP-S

Last updated on Sat Jan 18 2020 00:02:03 GMT+0000 (Coordinated Universal Time)

1 44875U 19092C 20017.10367490 .00001077 00000-0 57100-4 0 9991 2 44875 98.0049 205.4206 0126867 297.6651 61.1740 15.11304444 4487

Satellite not in orbit

ASAP-S